[[{"header":{"parameterUnit":"m.s-1","parameterCategory":2,"la1":30.2991,"la2":30.254,"lo1":-89.0895,"lo2":-89.0444,"dy":0.0017,"dx":0.0017,"nx":28,"ny":28,"refTime":"2025-06-10T21:00:00:Z","depth":"0","parameterNumber":2,"parameterNumberName":"U-component_of_CURRENTS"},"data":[0,0,0,0,0,0,0,0,0,0,0,0,0,0,0,0,0,0,0,0,0,0,0,0,0,0,0,0,0,0,0,0,0,0,0,0,0,0,0,0,0,0,0,0,0,0,0,0,0,0,0,0,0,0,0,0,0,0,0.1689,0.169,0,0.1873,0.1875,0.1877,0.1899,0.1897,0.1895,0.1894,0.2069,0.2076,0.2082,0,0,0,0,0,0,0,0,0,0,0,0,0,0.1565,0.1566,0.1688,0.1691,0.1693,0.1873,0.1875,0.1878,0.19,0.1897,0.1895,0.1893,0.2067,0.2075,0.2083,0,0,0,0,0,0,0,0,0,0,0,0,0,0.1672,0.1566,0.1688,0.1724,0.1729,0.1872,0.1875,0.1879,0.19,0.1897,0.1894,0.1892,0.2065,0.2074,0.2084,0.2202,0,0,0.2114,0.2118,0,0,0,0,0,0,0,0,0.1665,0.1676,0.1717,0.1722,0.1728,0.1859,0.1897,0.1986,0.1901,0.1837,0.1893,0.189,0.2,0.2015,0.2058,0.221,0.2218,0.2114,0.212,0.2124,0.2127,0,0,0,0,0,0,0,0.1658,0.167,0.1763,0.1719,0.1726,0.1804,0.1814,0.1915,0.1933,0.1842,0.1844,0.1863,0.2002,0.2048,0.2062,0.222,0.2114,0.2123,0.2129,0.2133,0.2497,0.25,0,0,0,0,0,0,0.1625,0.1662,0.1757,0.1768,0.1688,0.1807,0.1819,0.1821,0.1932,0.1946,0.1866,0.1864,0.2033,0.205,0.2068,0.2215,0.2124,0.2134,0.2139,0.2493,0.2497,0.2502,0,0,0,0,0,0,0.1621,0.1631,0.1749,0.1719,0.1739,0.181,0.1814,0.1826,0.1869,0.195,0.1963,0.1895,0.2031,0.2054,0.216,0.2221,0.2138,0.2147,0.2488,0.2494,0.25,0.2508,0,0,0,0,0,0,0.1617,0.1628,0.1632,0.1716,0.174,0.1855,0.1817,0.1832,0.1885,0.1884,0.1981,0.1993,0.2031,0.2145,0.2169,0.2233,0.2154,0.2483,0.2491,0.2498,0.2502,0.2513,0.2522,0,0,0,0,0,0.1611,0.1645,0.1631,0.1644,0.1737,0.1858,0.188,0.1921,0.1889,0.1942,0.1982,0.199,0.2208,0.2156,0.2184,0.2251,0.248,0.2489,0.2497,0.2498,0.2511,0.2522,0,0,0,0,0,0,0.1616,0.1653,0.1639,0.1684,0.1765,0.1861,0.1919,0.193,0.2007,0.1998,0.204,0.2061,0.2181,0.2225,0.2166,0.2382,0.2348,0.2362,0.2339,0.2352,0.2361,0.233,0.2162,0,0,0,0,0,0.161,0.1629,0.1694,0.1737,0.1773,0.184,0.1892,0.1922,0.1995,0.2024,0.2079,0.2153,0.2247,0.2297,0.2391,0.2511,0.2496,0.2577,0.2586,0.2594,0.2591,0.2649,0.2661,0.253,0.253,0.253,0,0,0.1624,0.1649,0.166,0.1737,0.1798,0.1884,0.1866,0.1961,0.2021,0.2037,0.2135,0.2196,0.2288,0.2415,0.2473,0.2452,0.2613,0.2605,0.261,0.2603,0.2659,0.2671,0.2682,0.2536,0.2535,0.2534,0,0,0.1695,0.1685,0.1736,0.1802,0.1892,0.1934,0.1956,0.2052,0.208,0.219,0.2209,0.2291,0.2442,0.2506,0.2559,0.2688,0.2665,0.2734,0.2756,0.2813,0.2822,0.2831,0.276,0.2762,0.2735,0.2735,0.2735,0,0.1713,0.1772,0.1784,0.1868,0.1921,0.195,0.2039,0.2095,0.2208,0.2238,0.2224,0.2423,0.2485,0.2624,0.2657,0.2706,0.2691,0.2692,0.2819,0.2828,0.2836,0.2762,0.2764,0.2737,0.2736,0.2736,0.2736,0,0.1828,0.1882,0.1934,0.2011,0.2073,0.2168,0.2222,0.2277,0.2291,0.2339,0.2462,0.2541,0.2646,0.2694,0.2711,0.2827,0.2775,0.2818,0.2768,0.2848,0.2766,0.2767,0.2739,0.2738,0.2738,0.2737,0,0,0.1854,0.1982,0.1999,0.2049,0.215,0.2214,0.2296,0.2387,0.2429,0.2516,0.2588,0.2725,0.2732,0.2793,0.2835,0.2877,0.2891,0.2866,0.2868,0.2755,0.2923,0.2632,0.2604,0.296,0.2962,0.2964,0.2813,0,0.1946,0.2103,0.213,0.2265,0.2352,0.2373,0.2441,0.251,0.2557,0.2636,0.2695,0.2789,0.2784,0.2825,0.2875,0.2914,0.291,0.2922,0.2898,0.2895,0.2596,0.2604,0.249,0.2326,0.2814,0.2815,0.2815,0,0.2056,0.2136,0.2282,0.2375,0.2406,0.2468,0.254,0.261,0.2701,0.2732,0.2811,0.2853,0.2928,0.2915,0.2962,0.297,0.2937,0.2937,0.2933,0.2661,0.2609,0.2347,0.2311,0.2243,0.2817,0.2817,0.2817,0,0.209,0.2237,0.2338,0.2384,0.2497,0.2526,0.2562,0.2643,0.2681,0.2783,0.281,0.2916,0.2934,0.2976,0.2899,0.2965,0.2889,0.2993,0.2679,0.2654,0.2549,0.2509,0.2414,0.3006,0.3006,0.3007,0.3007,0,0.2197,0.2272,0.2355,0.2422,0.25,0.2548,0.262,0.267,0.2733,0.2767,0.2847,0.2873,0.2955,0.2907,0.2895,0.2708,0.2869,0.2647,0.2608,0.2538,0.2501,0.243,0.2432,0.3001,0.3002,0.3003,0.3004,0,0.2261,0.2323,0.2436,0.2525,0.2537,0.2591,0.2627,0.267,0.2713,0.2756,0.2774,0.2829,0.2737,0.2696,0.2693,0.2625,0.2425,0.242,0.2233,0.2174,0.1854,0.1861,0.1648,0.1617,0.2119,0.2111,0.2104,0,0.2324,0.2397,0.2492,0.2527,0.2566,0.2619,0.264,0.2672,0.2684,0.2705,0.271,0.2631,0.2545,0.2336,0.2199,0.2019,0.2056,0.1794,0.192,0.1762,0.175,0.1762,0.176,0.1776,0.1767,0.176,0.1755,0,0.2438,0.2459,0.2543,0.2589,0.2617,0.2635,0.2644,0.2633,0.2632,0.2626,0.2546,0.2475,0.2217,0.1969,0.1662,0.1585,0.1686,0.1632,0.1606,0.1541,0.1426,0.1401,0.1867,0.169,0.1697,0.1701,0.1705,0.1707,0.25,0.256,0.2625,0.2643,0.2658,0.2601,0.2554,0.2523,0.2473,0.2334,0.2355,0.2127,0.1844,0.1419,0.129,0.0978,0.1152,0.0988,0.1021,0.1056,0.0985,0.1183,0.0879,0.088,0.0882,0.0883,0.0884,0,0.2563,0.2603,0.265,0.2638,0.2575,0.2582,0.2507,0.2388,0.224,0.211,0.1966,0.1566,0.1242,0.0979,0.0598,0.045,0.055,0.0409,0.0532,0.0583,0.0878,0.0823,0.0326,0.0326,0.0326,0.0326,0.0326,0.0326,0.2609,0.265,0.2631,0.2521,0.2476,0.2312,0.2222,0.2064,0.1919,0.1571,0.1287,0.1133,0.0846,0.0433,0.0128,0.01,0.0154,0.0027,0.0118,0.0443,0.0507,0.0568,0.0519,-0.0034,-0.0034,-0.0147,-0.0148,-0.0149]},{"header":{"parameterUnit":"m.s-1","parameterCategory":2,"la1":30.2991,"la2":30.254,"lo1":-89.0895,"lo2":-89.0444,"dy":0.0017,"dx":0.0017,"nx":28,"ny":28,"refTime":"2025-06-10T21:00:00:Z","depth":"0","parameterNumber":3,"parameterNumberName":"V-component_of_CURRENTS"},"data":[0,0,0,0,0,0,0,0,0,0,0,0,0,0,0,0,0,0,0,0,0,0,0,0,0,0,0,0,0,0,0,0,0,0,0,0,0,0,0,0,0,0,0,0,0,0,0,0,0,0,0,0,0,0,0,0,0,0,0.0168,0.0168,0,0.0206,0.0207,0.0207,0.0206,0.0206,0.0205,0.0204,0.0411,0.0417,0.0423,0,0,0,0,0,0,0,0,0,0,0,0,0,0.0151,0.0151,0.0168,0.0169,0.0169,0.0206,0.0207,0.0207,0.0206,0.0205,0.0205,0.0204,0.0409,0.0417,0.0424,0,0,0,0,0,0,0,0,0,0,0,0,0,0.0171,0.0151,0.0168,0.0172,0.0173,0.0206,0.0207,0.0207,0.0206,0.0205,0.0205,0.0204,0.0407,0.0416,0.0425,0.0499,0,0,0.0453,0.0457,0,0,0,0,0,0,0,0,0.017,0.0172,0.0171,0.0172,0.0173,0.02,0.0276,0.0313,0.0207,0.0195,0.0204,0.0203,0.0357,0.037,0.0377,0.0509,0.0517,0.0453,0.0459,0.0463,0.0465,0,0,0,0,0,0,0,0.0168,0.017,0.0184,0.0172,0.0173,0.0191,0.0193,0.0283,0.0284,0.0196,0.0195,0.0199,0.0358,0.0368,0.0383,0.0521,0.0453,0.0461,0.0467,0.047,0.0893,0.0898,0,0,0,0,0,0,0.016,0.0169,0.0183,0.0185,0.0168,0.0192,0.0194,0.0193,0.0279,0.029,0.0199,0.0198,0.0353,0.0372,0.039,0.0598,0.0463,0.0471,0.0477,0.0887,0.0894,0.09,0,0,0,0,0,0,0.0159,0.0161,0.0181,0.0177,0.0181,0.0193,0.0192,0.0194,0.0202,0.028,0.0294,0.0204,0.0353,0.0378,0.0494,0.0602,0.0475,0.0484,0.088,0.0889,0.0897,0.0942,0,0,0,0,0,0,0.0159,0.016,0.016,0.0177,0.0181,0.0204,0.0193,0.0195,0.0205,0.0204,0.029,0.0307,0.0355,0.048,0.0503,0.0612,0.0491,0.0873,0.0884,0.0895,0.0933,0.0951,0.0967,0,0,0,0,0,0.0158,0.0168,0.016,0.0162,0.0179,0.0204,0.0209,0.0215,0.0206,0.0217,0.0289,0.0304,0.0567,0.049,0.0516,0.0631,0.0868,0.0881,0.0894,0.0926,0.0948,0.0966,0,0,0,0,0,0,0.0161,0.0169,0.0161,0.0171,0.0184,0.0204,0.0216,0.0216,0.0276,0.0283,0.0349,0.0374,0.0528,0.0577,0.049,0.0794,0.0734,0.0752,0.075,0.0771,0.0787,0.0796,0.0498,0,0,0,0,0,0.016,0.0168,0.0177,0.0185,0.019,0.0201,0.0211,0.0216,0.0265,0.0286,0.0351,0.0463,0.0605,0.0675,0.0782,0.0926,0.0906,0.1033,0.105,0.1063,0.1095,0.114,0.116,0.0943,0.0943,0.0943,0,0,0.0162,0.0169,0.0172,0.0187,0.0195,0.0244,0.0205,0.0224,0.03,0.0309,0.0432,0.0507,0.0654,0.0824,0.0902,0.0875,0.1107,0.1079,0.1089,0.1115,0.1155,0.1175,0.1193,0.0952,0.095,0.0949,0,0,0.0184,0.0176,0.0193,0.0215,0.0232,0.0262,0.0267,0.0293,0.0337,0.0448,0.0511,0.0644,0.0812,0.0955,0.1054,0.1234,0.1183,0.1279,0.1379,0.1421,0.1437,0.1451,0.1386,0.1394,0.1297,0.1297,0.1297,0,0.0185,0.0215,0.0204,0.024,0.0285,0.0277,0.0338,0.0394,0.0463,0.0546,0.05,0.0809,0.0899,0.1176,0.1242,0.1274,0.1231,0.1274,0.1434,0.1448,0.1462,0.1392,0.14,0.1301,0.1301,0.13,0.13,0,0.0231,0.0262,0.0279,0.0338,0.0387,0.0429,0.0506,0.0575,0.0621,0.0691,0.0906,0.1011,0.12,0.127,0.1313,0.1516,0.1425,0.1424,0.1355,0.1484,0.1404,0.1411,0.1306,0.1305,0.1304,0.1303,0,0,0.0226,0.0296,0.0305,0.0366,0.0447,0.0502,0.0649,0.08,0.0925,0.0999,0.1175,0.1408,0.1419,0.1535,0.1604,0.1658,0.1688,0.1579,0.1579,0.1463,0.1681,0.1595,0.1593,0.1681,0.1685,0.1688,0.1557,0,0.027,0.0359,0.0401,0.0539,0.0604,0.0685,0.0837,0.0979,0.1088,0.1246,0.1386,0.1558,0.1541,0.162,0.1681,0.1714,0.1722,0.1718,0.1621,0.1617,0.1486,0.1608,0.1585,0.1468,0.1564,0.1565,0.1566,0,0.0316,0.0378,0.0496,0.0672,0.0712,0.0809,0.1058,0.1186,0.1411,0.1489,0.1652,0.172,0.1892,0.1806,0.1881,0.1859,0.178,0.1752,0.1746,0.1668,0.1551,0.1378,0.1477,0.1528,0.1576,0.1575,0.1575,0,0.0342,0.0469,0.0575,0.0625,0.0806,0.0916,0.1038,0.1264,0.1402,0.1626,0.1711,0.1894,0.1966,0.1951,0.1894,0.1877,0.1881,0.1851,0.1687,0.1673,0.1648,0.1629,0.1757,0.1862,0.1863,0.1863,0.1864,0,0.0402,0.0494,0.059,0.0653,0.0842,0.0949,0.1171,0.1322,0.1517,0.1679,0.1813,0.1938,0.1997,0.201,0.1928,0.1826,0.1897,0.1728,0.1674,0.1658,0.1642,0.1678,0.1693,0.1858,0.1859,0.186,0.1861,0,0.0444,0.0486,0.0626,0.0791,0.0853,0.0995,0.1217,0.137,0.1525,0.1723,0.1783,0.1968,0.198,0.197,0.1938,0.1856,0.1773,0.1698,0.1622,0.1565,0.1478,0.1495,0.1512,0.1553,0.152,0.1518,0.1516,0,0.0482,0.0539,0.0705,0.0797,0.0876,0.1062,0.1197,0.1373,0.15,0.1729,0.1811,0.1903,0.1965,0.1885,0.1782,0.1623,0.166,0.1491,0.1511,0.1506,0.1486,0.1486,0.1522,0.1447,0.1445,0.1443,0.1441,0,0.0579,0.0615,0.0734,0.0879,0.1013,0.1166,0.1332,0.1411,0.1592,0.1701,0.1825,0.1883,0.1853,0.1756,0.1581,0.1487,0.1544,0.1443,0.1513,0.1524,0.1466,0.1465,0.1418,0.1424,0.1426,0.1427,0.1428,0.1429,0.066,0.0753,0.0863,0.1014,0.1134,0.1233,0.1319,0.1432,0.1551,0.1652,0.1738,0.175,0.1724,0.1513,0.1443,0.1345,0.1366,0.1317,0.1344,0.135,0.1413,0.1279,0.1194,0.1194,0.1195,0.1195,0.1195,0,0.0772,0.0858,0.0993,0.1135,0.1209,0.1263,0.1387,0.1409,0.1455,0.1526,0.1563,0.1501,0.144,0.1403,0.1291,0.1269,0.1306,0.1289,0.1349,0.1401,0.1344,0.1372,0.1237,0.1237,0.1237,0.1237,0.1237,0.1237,0.0843,0.0977,0.1025,0.1152,0.1217,0.1259,0.1287,0.1296,0.132,0.1284,0.1236,0.124,0.1283,0.1285,0.1312,0.1321,0.1423,0.1342,0.143,0.1448,0.1455,0.1463,0.1499,0.1393,0.1393,0.1501,0.1502,0.1503]}],[{"header":{"parameterUnit":"m.s-1","parameterCategory":2,"la1":30.2991,"la2":30.254,"lo1":-89.0895,"lo2":-89.0444,"dy":0.0017,"dx":0.0017,"nx":28,"ny":28,"refTime":"2025-06-10T21:00:00:Z","depth":"2","parameterNumber":2,"parameterNumberName":"U-component_of_CURRENTS"},"data":[0,0,0,0,0,0,0,0,0,0,0,0,0,0,0,0,0,0,0,0,0,0,0,0,0,0,0,0,0,0,0,0,0,0,0,0,0,0,0,0,0,0,0,0,0,0,0,0,0,0,0,0,0,0,0,0,0,0,0.148,0.1479,0,0.16,0.1603,0.1606,0.1707,0.1707,0.1706,0.1706,0.1919,0.1925,0.1932,0,0,0,0,0,0,0,0,0,0,0,0,0,0.1455,0.1456,0.148,0.1479,0.1479,0.16,0.1603,0.1606,0.1708,0.1707,0.1706,0.1706,0.1917,0.1925,0.1932,0,0,0,0,0,0,0,0,0,0,0,0,0,0.1526,0.1456,0.148,0.1531,0.1536,0.1599,0.1603,0.1607,0.1708,0.1707,0.1706,0.1705,0.1915,0.1924,0.1933,0.2006,0,0,0.1961,0.1965,0,0,0,0,0,0,0,0,0.1522,0.1529,0.1524,0.1528,0.1533,0.1622,0.1672,0.1739,0.1708,0.1661,0.1706,0.1705,0.1818,0.1835,0.1883,0.2016,0.2025,0.1962,0.1968,0.1972,0.1974,0,0,0,0,0,0,0,0.1517,0.1525,0.1545,0.1523,0.1529,0.1587,0.1598,0.1687,0.1758,0.1665,0.1668,0.1654,0.1823,0.1874,0.1889,0.2028,0.1962,0.197,0.1976,0.198,0.2378,0.2383,0,0,0,0,0,0,0.1461,0.152,0.1541,0.1547,0.1505,0.1587,0.1599,0.1609,0.1755,0.1771,0.1654,0.1658,0.1859,0.1878,0.1897,0.2081,0.1972,0.198,0.1986,0.2373,0.2379,0.2384,0,0,0,0,0,0,0.1461,0.1463,0.1536,0.1521,0.1532,0.1585,0.1597,0.1611,0.1683,0.1742,0.1763,0.1711,0.1859,0.1884,0.2018,0.2086,0.1985,0.1993,0.2367,0.2375,0.2382,0.2392,0,0,0,0,0,0,0.146,0.1463,0.1469,0.1518,0.153,0.1623,0.1596,0.1614,0.1665,0.1672,0.1798,0.1815,0.186,0.2004,0.2027,0.2097,0.2,0.236,0.237,0.2379,0.2385,0.2399,0.241,0,0,0,0,0,0.146,0.1479,0.147,0.1472,0.1532,0.1624,0.1643,0.1687,0.1668,0.1743,0.1809,0.1813,0.2081,0.2015,0.2041,0.2115,0.2356,0.2368,0.2379,0.2379,0.2396,0.241,0,0,0,0,0,0,0.149,0.149,0.1482,0.1505,0.1571,0.1636,0.1692,0.1702,0.1813,0.1823,0.1869,0.1896,0.204,0.2091,0.2017,0.2267,0.2224,0.224,0.2216,0.2232,0.2244,0.2208,0.2008,0,0,0,0,0,0.1485,0.1496,0.1528,0.1555,0.1591,0.1643,0.1681,0.1717,0.1795,0.1844,0.1912,0.2006,0.2109,0.2175,0.2276,0.2408,0.2381,0.2483,0.2495,0.2505,0.2501,0.2539,0.2552,0.2422,0.2421,0.2421,0,0,0.1499,0.1499,0.1507,0.1561,0.1619,0.169,0.1675,0.1762,0.1826,0.185,0.1982,0.2052,0.2155,0.2303,0.2374,0.2352,0.2522,0.2519,0.2526,0.2516,0.2552,0.2563,0.2574,0.2429,0.2428,0.2427,0,0,0.1549,0.1551,0.159,0.1644,0.171,0.1749,0.1773,0.1861,0.1922,0.2044,0.2073,0.2175,0.2342,0.2418,0.2476,0.2627,0.2582,0.268,0.2717,0.2755,0.2763,0.2771,0.2692,0.2692,0.269,0.269,0.269,0,0.1567,0.1612,0.1628,0.1689,0.1735,0.1773,0.1858,0.1927,0.2042,0.2097,0.2101,0.2318,0.2395,0.2541,0.2597,0.2649,0.2622,0.2633,0.2761,0.2769,0.2776,0.2694,0.2694,0.2692,0.2692,0.2692,0.2692,0,0.164,0.1694,0.1741,0.1809,0.1872,0.1966,0.203,0.2117,0.2164,0.2211,0.2369,0.2464,0.258,0.2638,0.2663,0.2778,0.2721,0.2755,0.2693,0.2787,0.2697,0.2697,0.2695,0.2694,0.2694,0.2693,0,0,0.166,0.1768,0.1788,0.1854,0.1949,0.2019,0.2127,0.2247,0.2305,0.2416,0.2508,0.2671,0.2679,0.2746,0.2791,0.2832,0.2838,0.2816,0.2817,0.2683,0.2832,0.2553,0.2525,0.2889,0.2891,0.2893,0.2722,0,0.1736,0.1857,0.1888,0.2036,0.2128,0.2186,0.2269,0.2364,0.2445,0.2541,0.2628,0.2732,0.2733,0.2784,0.2827,0.2855,0.2849,0.2875,0.2809,0.2805,0.2503,0.2522,0.2403,0.2223,0.2721,0.2721,0.272,0,0.1809,0.1886,0.2029,0.2162,0.2206,0.2276,0.2415,0.2491,0.2601,0.2659,0.2745,0.2791,0.2871,0.2862,0.2887,0.29,0.2861,0.2854,0.2849,0.2585,0.2528,0.2231,0.2202,0.2719,0.2719,0.2719,0.2719,0,0.1835,0.1993,0.2109,0.2157,0.2295,0.2371,0.2432,0.2534,0.2591,0.2714,0.2748,0.2847,0.288,0.2893,0.2818,0.2881,0.278,0.2873,0.2565,0.2541,0.2423,0.2384,0.2869,0.287,0.287,0.2871,0.2871,0,0.1909,0.2012,0.2132,0.22,0.233,0.2398,0.2507,0.2582,0.2653,0.2692,0.2784,0.2798,0.2896,0.2839,0.2805,0.2602,0.2749,0.2535,0.2489,0.2415,0.238,0.2826,0.2823,0.2864,0.2865,0.2867,0.2868,0,0.1939,0.2019,0.2162,0.2307,0.2351,0.2435,0.2522,0.2572,0.2631,0.2681,0.2709,0.2764,0.2662,0.2629,0.2603,0.2525,0.2409,0.2293,0.2115,0.2049,0.2157,0.2159,0.2001,0.199,0.198,0.1973,0.1966,0,0.1948,0.2025,0.2205,0.2278,0.2354,0.2458,0.2502,0.2567,0.2587,0.2616,0.2619,0.2554,0.2435,0.2201,0.2086,0.1888,0.2059,0.1663,0.1786,0.2101,0.2074,0.209,0.2104,0.1628,0.1619,0.1612,0.1606,0,0.1978,0.2052,0.2182,0.2299,0.2385,0.2451,0.2507,0.2497,0.2528,0.2482,0.237,0.2267,0.2053,0.1784,0.1515,0.1423,0.1698,0.1502,0.1918,0.1834,0.1727,0.1707,0.1739,0.1542,0.1548,0.1553,0.1556,0.1559,0.2015,0.2084,0.2226,0.2332,0.2411,0.2411,0.2387,0.2358,0.227,0.212,0.2097,0.1824,0.1745,0.1242,0.1079,0.0984,0.1152,0.1162,0.1196,0.1236,0.1191,0.1071,0.0748,0.075,0.0751,0.0753,0.0754,0,0.2052,0.2135,0.2221,0.233,0.2333,0.24,0.2361,0.2226,0.2012,0.1845,0.1637,0.1268,0.0997,0.0908,0.0668,0.0576,0.0712,0.0545,0.0788,0.0847,0.09,0.0854,0.0314,0.0312,0.0311,0.031,0,0,0.2119,0.2187,0.2191,0.2204,0.2256,0.2185,0.2124,0.1897,0.1709,0.1308,0.108,0.0991,0.0909,0.064,0.0544,0.041,0.0651,0.0369,0.0723,0.1075,0.1129,0.1241,0.1227,0,0,0,0,0]},{"header":{"parameterUnit":"m.s-1","parameterCategory":2,"la1":30.2991,"la2":30.254,"lo1":-89.0895,"lo2":-89.0444,"dy":0.0017,"dx":0.0017,"nx":28,"ny":28,"refTime":"2025-06-10T21:00:00:Z","depth":"2","parameterNumber":3,"parameterNumberName":"V-component_of_CURRENTS"},"data":[0,0,0,0,0,0,0,0,0,0,0,0,0,0,0,0,0,0,0,0,0,0,0,0,0,0,0,0,0,0,0,0,0,0,0,0,0,0,0,0,0,0,0,0,0,0,0,0,0,0,0,0,0,0,0,0,0,0,-0.0085,-0.0086,0,-0.0181,-0.0182,-0.0183,-0.0166,-0.0165,-0.0163,-0.0162,-0.0034,-0.0032,-0.003,0,0,0,0,0,0,0,0,0,0,0,0,0,-0.0013,-0.0014,-0.0085,-0.0086,-0.0088,-0.0181,-0.0182,-0.0183,-0.0166,-0.0165,-0.0163,-0.0161,-0.0035,-0.0032,-0.003,0,0,0,0,0,0,0,0,0,0,0,0,0,-0.0067,-0.0014,-0.0085,-0.0093,-0.0095,-0.0181,-0.0182,-0.0183,-0.0167,-0.0165,-0.0163,-0.0161,-0.0035,-0.0032,-0.0029,-0.0052,0,0,-0.002,-0.0018,0,0,0,0,0,0,0,0,-0.0064,-0.0069,-0.009,-0.0093,-0.0095,-0.0162,-0.011,-0.0129,-0.0167,-0.0136,-0.0162,-0.016,-0.006,-0.0055,-0.0076,-0.0046,-0.0041,-0.0019,-0.0017,-0.0016,-0.0015,0,0,0,0,0,0,0,-0.006,-0.0066,-0.012,-0.0092,-0.0095,-0.0136,-0.014,-0.0115,-0.0102,-0.0139,-0.0139,-0.0155,-0.0058,-0.0079,-0.0072,-0.0039,-0.0019,-0.0017,-0.0015,-0.0014,0.0349,0.0356,0,0,0,0,0,0,-0.005,-0.0062,-0.0117,-0.0123,-0.0078,-0.0139,-0.0143,-0.014,-0.0107,-0.0103,-0.0157,-0.0154,-0.0086,-0.0076,-0.0067,0.014,-0.0016,-0.0013,-0.0011,0.0341,0.035,0.0359,0,0,0,0,0,0,-0.0048,-0.0054,-0.0113,-0.0098,-0.0109,-0.0141,-0.0139,-0.0143,-0.0137,-0.0124,-0.0114,-0.0143,-0.0084,-0.0072,0.0029,0.0137,-0.0012,-0.0009,0.0332,0.0344,0.0354,0.0406,0,0,0,0,0,0,-0.0045,-0.0052,-0.0052,-0.0097,-0.011,-0.0158,-0.0142,-0.0147,-0.0154,-0.015,-0.011,-0.0098,-0.0081,0.0025,0.0032,0.0138,-0.0006,0.0322,0.0337,0.0351,0.0395,0.0418,0.0438,0,0,0,0,0,-0.0042,-0.0047,-0.0051,-0.0058,-0.0106,-0.016,-0.017,-0.0184,-0.0155,-0.0166,-0.0081,-0.0098,0.0126,0.003,0.0038,0.0148,0.0315,0.0333,0.035,0.0385,0.0413,0.0438,0,0,0,0,0,0,-0.0023,-0.0048,-0.0052,-0.0065,-0.0108,-0.0157,-0.0167,-0.0173,-0.0128,-0.0089,-0.0056,-0.0038,0.0101,0.0133,0.0027,0.0317,0.0241,0.026,0.0266,0.0293,0.0314,0.0311,-0.0004,0,0,0,0,0,-0.0019,-0.0021,-0.0065,-0.0079,-0.0088,-0.0121,-0.0142,-0.0149,-0.0123,-0.0103,-0.0058,0.0052,0.0172,0.0233,0.0309,0.0424,0.0386,0.0532,0.0553,0.057,0.0588,0.06,0.062,0.0416,0.0416,0.0415,0,0,-0.0018,-0.0034,-0.0036,-0.0076,-0.0095,-0.0106,-0.0125,-0.0142,-0.0089,-0.009,0.0026,0.0094,0.0219,0.0369,0.0441,0.041,0.0614,0.0592,0.0604,0.0613,0.0619,0.0637,0.0653,0.0428,0.0425,0.0424,0,0,-0.0034,-0.0021,-0.0037,-0.0066,-0.0099,-0.0092,-0.0087,-0.0104,-0.0037,0.005,0.0122,0.026,0.0386,0.0516,0.0602,0.0797,0.071,0.085,0.0959,0.097,0.0983,0.0994,0.0945,0.0951,0.0879,0.0879,0.0879,0,-0.0036,-0.0051,-0.0056,-0.0088,-0.0071,-0.0071,-0.0059,-0.001,0.0023,0.0126,0.0115,0.0398,0.0477,0.0722,0.0817,0.084,0.0792,0.0822,0.0984,0.0995,0.1005,0.0952,0.0958,0.0883,0.0883,0.0882,0.0882,0,-0.0074,-0.0084,-0.0089,-0.0088,-0.0066,-0.0066,0.0012,0.0101,0.0202,0.025,0.0485,0.059,0.0764,0.0846,0.0891,0.1073,0.0993,0.0972,0.0875,0.1025,0.0964,0.0968,0.089,0.0888,0.0887,0.0886,0,0,-0.0063,-0.0106,-0.0105,-0.0065,-0.005,-0.0005,0.0143,0.029,0.0441,0.0519,0.0701,0.0941,0.0966,0.1074,0.115,0.12,0.1232,0.1126,0.1125,0.1004,0.1189,0.109,0.1084,0.1195,0.1198,0.12,0.11,0,-0.0081,-0.012,-0.0101,-0.003,-0.0009,0.0107,0.0251,0.0404,0.0558,0.0721,0.089,0.1053,0.1066,0.1161,0.1214,0.1252,0.1253,0.1257,0.113,0.1126,0.0957,0.1092,0.1067,0.0974,0.1105,0.1105,0.1106,0,-0.0107,-0.0111,-0.009,0.0067,0.0106,0.019,0.0511,0.062,0.0847,0.0965,0.1124,0.1184,0.136,0.1294,0.1374,0.1358,0.128,0.1259,0.1253,0.1148,0.1039,0.0864,0.0977,0.1113,0.1112,0.1112,0.1111,0,-0.0083,-0.0046,0.0009,0.0025,0.0157,0.0324,0.0466,0.0706,0.0843,0.109,0.1179,0.1346,0.1437,0.1405,0.1372,0.1363,0.1353,0.1329,0.115,0.1138,0.1095,0.1076,0.1305,0.1305,0.1306,0.1306,0.1306,0,-0.0101,-0.0042,0.0043,0.0053,0.0272,0.0373,0.0631,0.0811,0.0985,0.1127,0.1272,0.137,0.1458,0.1456,0.1382,0.1286,0.1349,0.1187,0.113,0.1115,0.1101,0.1214,0.1205,0.1302,0.1303,0.1304,0.1304,0,-0.0119,-0.0114,-0.0022,0.015,0.025,0.0416,0.0673,0.0821,0.1002,0.118,0.1237,0.1389,0.1417,0.1422,0.1384,0.1308,0.1218,0.1126,0.1078,0.1019,0.0981,0.0977,0.0966,0.0962,0.0959,0.0956,0.0954,0,-0.0154,-0.0146,0.0033,0.0143,0.0238,0.0475,0.0618,0.0818,0.0941,0.1165,0.122,0.1306,0.1355,0.1272,0.1192,0.1059,0.107,0.0909,0.0928,0.1012,0.0958,0.0959,0.096,0.0876,0.0874,0.0872,0.087,0,-0.0186,-0.0132,-0.0034,0.0137,0.0321,0.0496,0.0714,0.0764,0.0975,0.1106,0.1204,0.1234,0.1228,0.1128,0.0987,0.0886,0.0959,0.0855,0.0988,0.0962,0.092,0.0868,0.0874,0.085,0.0852,0.0854,0.0855,0.0855,-0.0158,-0.009,0.0017,0.0217,0.0398,0.0514,0.0623,0.076,0.0874,0.1043,0.1075,0.1121,0.1111,0.0894,0.0799,0.0728,0.0756,0.0712,0.0724,0.0736,0.0741,0.0695,0.058,0.058,0.058,0.0581,0.0581,0,-0.0103,-0.0034,0.0101,0.031,0.045,0.0571,0.0701,0.0743,0.083,0.0922,0.1007,0.0878,0.0806,0.0767,0.0641,0.0573,0.0622,0.0537,0.063,0.0647,0.0664,0.067,0.0487,0.0487,0.0487,0.0486,0,0,-0.0051,0.0039,0.0085,0.0311,0.0483,0.0647,0.0703,0.0709,0.0744,0.0741,0.0762,0.0833,0.0778,0.0656,0.0605,0.0541,0.0605,0.052,0.0596,0.0728,0.0745,0.0758,0.0784,0,0,0,0,0]}],[{"header":{"parameterUnit":"m.s-1","parameterCategory":2,"la1":30.2991,"la2":30.254,"lo1":-89.0895,"lo2":-89.0444,"dy":0.0017,"dx":0.0017,"nx":28,"ny":28,"refTime":"2025-06-10T21:00:00:Z","depth":"4","parameterNumber":2,"parameterNumberName":"U-component_of_CURRENTS"},"data":[0,0,0,0,0,0,0,0,0,0,0,0,0,0,0,0,0,0,0,0,0,0,0,0,0,0,0,0,0,0,0,0,0,0,0,0,0,0,0,0,0,0,0,0,0,0,0,0,0,0,0,0,0,0,0,0,0,0,0.0436,0.0434,0,0.0195,0.0193,0.019,0.0148,0.015,0.0152,0.0154,0.0153,0.0151,0.0149,0,0,0,0,0,0,0,0,0,0,0,0,0,0.0659,0.0656,0.0436,0.0433,0.0431,0.0196,0.0192,0.0189,0.0147,0.015,0.0153,0.0155,0.0154,0.0151,0.0149,0,0,0,0,0,0,0,0,0,0,0,0,0,0.0503,0.0655,0.0437,0.0383,0.0376,0.0197,0.0192,0.0188,0.0147,0.015,0.0153,0.0156,0.0155,0.0152,0.0149,0.0062,0,0,0.0139,0.0138,0,0,0,0,0,0,0,0,0.0512,0.0494,0.0394,0.0387,0.0379,0.0207,0.027,0.0159,0.0146,0.0231,0.0154,0.0158,0.0193,0.0186,0.0127,0.0062,0.0062,0.0139,0.0137,0.0135,0.0135,0,0,0,0,0,0,0,0.0523,0.0503,0.0339,0.0391,0.0381,0.0302,0.0286,0.0247,0.0199,0.0224,0.0221,0.0197,0.019,0.013,0.0127,0.0062,0.0139,0.0136,0.0134,0.0133,0.0212,0.0216,0,0,0,0,0,0,0.0563,0.0514,0.0346,0.0332,0.0457,0.0297,0.0278,0.0257,0.0194,0.0186,0.0194,0.0196,0.0133,0.0131,0.0128,0.0231,0.0135,0.0132,0.0131,0.0208,0.0213,0.0218,0,0,0,0,0,0,0.0569,0.0551,0.0356,0.0419,0.039,0.0291,0.0267,0.025,0.0238,0.0169,0.0166,0.0206,0.0136,0.0132,0.013,0.0224,0.0131,0.0128,0.0204,0.021,0.0215,0.0306,0,0,0,0,0,0,0.0577,0.0554,0.0548,0.0422,0.0388,0.0266,0.0263,0.0243,0.0216,0.0217,0.0176,0.0176,0.0138,0.0135,0.0127,0.0218,0.0126,0.0199,0.0206,0.0214,0.0297,0.0314,0.0328,0,0,0,0,0,0.0585,0.0538,0.0549,0.0529,0.0384,0.0265,0.0239,0.0178,0.0214,0.0186,0.0184,0.018,0.0182,0.0132,0.0122,0.0216,0.0195,0.0204,0.0213,0.0291,0.0311,0.0328,0,0,0,0,0,0,0.0619,0.0526,0.0536,0.0465,0.0394,0.026,0.0209,0.0204,0.0168,0.0187,0.017,0.0166,0.0224,0.0198,0.0146,0.0272,0.0212,0.022,0.0276,0.0294,0.0309,0.0319,0.0123,0,0,0,0,0,0.0631,0.0588,0.0496,0.0449,0.0411,0.0334,0.0284,0.0249,0.0198,0.0186,0.0173,0.0194,0.0239,0.0248,0.0249,0.0266,0.0249,0.0346,0.0361,0.0374,0.0383,0.0459,0.0481,0.0247,0.0247,0.0247,0,0,0.0637,0.0579,0.0559,0.0457,0.0392,0.0326,0.0311,0.0231,0.0234,0.0193,0.0202,0.0228,0.0258,0.03,0.0329,0.0294,0.042,0.0385,0.0395,0.0398,0.0471,0.0493,0.0513,0.0253,0.0252,0.0251,0,0,0.0579,0.0574,0.0501,0.0444,0.0352,0.0321,0.0324,0.0226,0.0246,0.0246,0.0269,0.0332,0.0352,0.0387,0.0422,0.0519,0.0502,0.0571,0.0642,0.0717,0.0735,0.0752,0.0697,0.0708,0.0575,0.0575,0.0575,0,0.0594,0.0504,0.0462,0.037,0.0348,0.0342,0.0285,0.0283,0.022,0.0271,0.0278,0.0393,0.0403,0.0514,0.0569,0.0553,0.0558,0.056,0.0733,0.075,0.0765,0.0706,0.0717,0.0581,0.058,0.058,0.0579,0,0.0471,0.0415,0.0365,0.0295,0.0266,0.0211,0.0219,0.0251,0.0325,0.0344,0.0476,0.0487,0.0574,0.062,0.0626,0.0775,0.0725,0.0742,0.0675,0.0794,0.0723,0.0733,0.0588,0.0587,0.0585,0.0584,0,0,0.0474,0.0317,0.0308,0.0286,0.0237,0.0206,0.0267,0.0322,0.0413,0.0449,0.0576,0.0678,0.0727,0.0771,0.0804,0.0871,0.0962,0.0872,0.0873,0.0793,0.1056,0.0927,0.0923,0.1034,0.1038,0.1041,0.0938,0,0.041,0.0246,0.0216,0.0167,0.0102,0.0175,0.0245,0.0318,0.0425,0.0542,0.0662,0.0766,0.078,0.0847,0.0932,0.0979,0.1006,0.0983,0.0974,0.0971,0.0826,0.0939,0.1054,0.0944,0.0947,0.0948,0.0949,0,0.029,0.022,0.0118,0.0132,0.0128,0.0155,0.0329,0.0381,0.0563,0.0654,0.0796,0.0863,0.0997,0.0993,0.1104,0.1103,0.1095,0.1097,0.1093,0.0954,0.0865,0.0822,0.0966,0.0965,0.0964,0.0963,0.0961,0,0.0269,0.0171,0.0122,0.0105,0.011,0.0195,0.0284,0.0437,0.052,0.0734,0.0794,0.0971,0.1036,0.1129,0.1136,0.1154,0.1212,0.122,0.1058,0.1041,0.1139,0.1124,0.1278,0.1278,0.1278,0.1278,0.1279,0,0.0176,0.0136,0.0129,0.0096,0.018,0.0204,0.0348,0.047,0.0621,0.0712,0.0855,0.0905,0.1089,0.1128,0.1164,0.1127,0.1226,0.1078,0.1044,0.1169,0.1159,0.114,0.1126,0.1274,0.1275,0.1276,0.1277,0,0.0072,0.004,0.0011,0.0079,0.0134,0.021,0.0371,0.0451,0.0591,0.0713,0.077,0.088,0.0935,0.1016,0.111,0.1093,0.1106,0.1043,0.1088,0.1054,0.0862,0.0854,0.0881,0.0876,0.0873,0.0869,0.0867,0,-0.0015,-0.0071,0.0016,0.0063,0.0105,0.0226,0.0307,0.0459,0.0515,0.0654,0.0679,0.0751,0.0823,0.0831,0.0927,0.0955,0.0942,0.0907,0.0984,0.0877,0.084,0.0838,0.0835,0.086,0.0859,0.0858,0.0857,0,-0.0133,-0.0096,-0.0081,0.001,0.0106,0.018,0.0301,0.0331,0.0479,0.0567,0.0616,0.0664,0.0681,0.076,0.0766,0.079,0.0952,0.0867,0.0876,0.0948,0.0852,0.0819,0.0821,0.0844,0.0846,0.0847,0.0848,0,-0.0151,-0.0145,-0.0095,-0.0002,0.0085,0.0139,0.0206,0.0277,0.0354,0.0502,0.0492,0.0584,0.0667,0.0658,0.0672,0.0698,0.0702,0.0705,0.0723,0.0738,0.0748,0.0608,0.051,0,0,0,0,0,-0.0154,-0.0155,-0.0104,-0.0001,0.0059,0.0116,0.0196,0.0241,0.0351,0.0377,0.046,0.0491,0.0538,0.0543,0.0545,0.0565,0.0678,0.0557,0.0685,0.0769,0.0785,0.0814,0,0,0,0,0,0,-0.0164,-0.0134,-0.0117,-0.0027,0.0028,0.0091,0.0137,0.0197,0.0219,0.0331,0.0353,0.0443,0.0478,0.0553,0.0536,0.0541,0.0605,0.0608,0.0605,0.076,0.0774,0.0787,0.0822,0,0,0,0,0]},{"header":{"parameterUnit":"m.s-1","parameterCategory":2,"la1":30.2991,"la2":30.254,"lo1":-89.0895,"lo2":-89.0444,"dy":0.0017,"dx":0.0017,"nx":28,"ny":28,"refTime":"2025-06-10T21:00:00:Z","depth":"4","parameterNumber":3,"parameterNumberName":"V-component_of_CURRENTS"},"data":[0,0,0,0,0,0,0,0,0,0,0,0,0,0,0,0,0,0,0,0,0,0,0,0,0,0,0,0,0,0,0,0,0,0,0,0,0,0,0,0,0,0,0,0,0,0,0,0,0,0,0,0,0,0,0,0,0,0,-0.0023,-0.0022,0,0.0074,0.0075,0.0076,0.0089,0.0087,0.0086,0.0085,0.0103,0.0105,0.0106,0,0,0,0,0,0,0,0,0,0,0,0,0,-0.0072,-0.0072,-0.0023,-0.0022,-0.0021,0.0073,0.0075,0.0077,0.0089,0.0087,0.0086,0.0084,0.0102,0.0104,0.0106,0,0,0,0,0,0,0,0,0,0,0,0,0,-0.0018,-0.0072,-0.0023,-0.0006,-0.0004,0.0073,0.0075,0.0077,0.0089,0.0087,0.0085,0.0084,0.0102,0.0104,0.0107,0.0158,0,0,0.0114,0.0115,0,0,0,0,0,0,0,0,-0.0021,-0.0016,-0.0009,-0.0007,-0.0004,0.0065,0.0064,0.0099,0.0089,0.0057,0.0085,0.0083,0.0082,0.0086,0.0114,0.0158,0.0159,0.0114,0.0116,0.0117,0.0117,0,0,0,0,0,0,0,-0.0025,-0.0019,0.0018,-0.0008,-0.0005,0.004,0.0044,0.0072,0.0079,0.006,0.006,0.0067,0.0083,0.0112,0.0114,0.0159,0.0114,0.0116,0.0118,0.0119,0.0085,0.0082,0,0,0,0,0,0,-0.0048,-0.0024,0.0015,0.0021,-0.0021,0.0041,0.0047,0.0047,0.0081,0.0084,0.0068,0.0067,0.0108,0.0111,0.0114,0.0077,0.0117,0.0119,0.012,0.0087,0.0084,0.0082,0,0,0,0,0,0,-0.0049,-0.0045,0.0011,-0.0001,0.0009,0.0043,0.0043,0.0049,0.0061,0.0088,0.0089,0.007,0.0107,0.0111,0.012,0.0081,0.012,0.0122,0.009,0.0086,0.0083,0.0066,0,0,0,0,0,0,-0.0051,-0.0047,-0.005,-0.0003,0.0008,0.0053,0.0045,0.0053,0.0067,0.0066,0.009,0.0091,0.0106,0.0117,0.0123,0.0085,0.0124,0.0093,0.0088,0.0084,0.0069,0.0062,0.0056,0,0,0,0,0,-0.0053,-0.0046,-0.0051,-0.0046,0.0,0.0054,0.0065,0.0086,0.0068,0.0086,0.0086,0.009,0.009,0.0119,0.0126,0.0088,0.0095,0.0089,0.0084,0.0072,0.0063,0.0056,0,0,0,0,0,0,-0.0067,-0.0043,-0.0048,-0.0035,0.0001,0.0054,0.0075,0.008,0.0099,0.009,0.0098,0.0101,0.0079,0.0088,0.0118,0.0055,0.0078,0.0074,0.0066,0.0058,0.0051,0.0067,0.0126,0,0,0,0,0,-0.0074,-0.0066,-0.0032,-0.0022,-0.0005,0.0029,0.0051,0.0066,0.0089,0.0096,0.0108,0.0095,0.0068,0.0069,0.0064,0.0066,0.0081,0.0028,0.0021,0.0016,0.0028,0.0047,0.0045,0.0064,0.0064,0.0064,0,0,-0.008,-0.0063,-0.0061,-0.0024,0.0005,0.0041,0.0039,0.0076,0.0083,0.0095,0.0106,0.0085,0.0061,0.0043,0.0031,0.0047,0.0007,0.001,0.0006,0.002,0.0041,0.004,0.0039,0.0061,0.0061,0.0062,0,0,-0.0058,-0.0068,-0.0042,-0.0008,0.0035,0.0049,0.0051,0.0098,0.0091,0.0107,0.008,0.0039,0.0047,0.0007,-0.0016,-0.0062,-0.0031,-0.008,-0.0086,-0.0069,-0.0068,-0.0068,-0.0085,-0.0086,-0.0078,-0.0078,-0.0078,0,-0.0065,-0.0031,-0.0023,0.0025,0.0043,0.0045,0.0079,0.0083,0.012,0.0098,0.0101,0.004,0.0019,-0.0047,-0.0072,-0.0077,-0.0053,-0.0046,-0.0071,-0.0071,-0.007,-0.0087,-0.0087,-0.008,-0.008,-0.008,-0.0079,0,-0.0014,0.0018,0.0041,0.008,0.0097,0.0133,0.0131,0.013,0.0105,0.0094,0.0033,0.0008,-0.0029,-0.0072,-0.0077,-0.0116,-0.0099,-0.008,-0.0036,-0.0072,-0.009,-0.009,-0.0082,-0.0081,-0.0081,-0.0081,0,0,-0.0039,0.0054,0.0063,0.0094,0.0127,0.0147,0.0133,0.0114,0.0087,0.0073,0.0038,-0.0047,-0.0065,-0.0094,-0.0127,-0.0126,-0.0128,-0.0088,-0.0086,-0.008,-0.009,-0.0068,-0.0066,-0.0079,-0.0079,-0.0079,-0.0115,0,-0.0002,0.0095,0.0112,0.0168,0.0213,0.0193,0.0179,0.0151,0.0108,0.008,-0.0005,-0.0034,-0.0076,-0.0084,-0.0101,-0.0109,-0.0122,-0.0121,-0.0078,-0.0078,-0.0031,-0.0063,-0.0077,-0.0115,-0.0115,-0.0115,-0.0115,0,0.0045,0.0102,0.0177,0.0216,0.0225,0.0239,0.019,0.0188,0.0121,0.0096,0.0036,-0.0004,-0.0055,-0.0054,-0.0095,-0.0074,-0.0082,-0.0094,-0.0094,-0.0057,-0.0054,-0.0069,-0.0115,-0.0115,-0.0115,-0.0115,-0.0115,0,0.0048,0.0136,0.0187,0.0213,0.0256,0.0247,0.0242,0.0186,0.017,0.0129,0.0117,0.0042,0.0027,0.0012,-0.0039,-0.0035,-0.0058,-0.006,-0.0071,-0.0071,-0.0068,-0.0068,-0.0075,-0.0075,-0.0075,-0.0074,-0.0074,0,0.0091,0.0136,0.0199,0.0241,0.0258,0.0274,0.0265,0.0246,0.0221,0.0196,0.0145,0.0103,0.0062,0.0022,-0.0014,-0.0044,-0.0041,-0.0073,-0.0069,-0.0085,-0.0086,-0.007,-0.0069,-0.0076,-0.0076,-0.0075,-0.0075,0,0.0116,0.0167,0.0229,0.0272,0.0282,0.0295,0.0313,0.0295,0.029,0.0266,0.027,0.0178,0.0133,0.0069,0.003,-0.0008,-0.0037,-0.0051,-0.0085,-0.0082,-0.0078,-0.0078,-0.0067,-0.0066,-0.0066,-0.0065,-0.0065,0,0.0143,0.0192,0.025,0.0264,0.029,0.0319,0.0322,0.0335,0.0306,0.0285,0.025,0.0216,0.015,0.0089,0.0032,-0.0022,-0.0034,-0.005,-0.0056,-0.0075,-0.0072,-0.0073,-0.0074,-0.0064,-0.0064,-0.0063,-0.0063,0,0.0175,0.0195,0.0229,0.0273,0.0288,0.0309,0.031,0.0311,0.0306,0.0318,0.0257,0.022,0.0154,0.0081,0.0059,0.0005,-0.0032,-0.0044,-0.0046,-0.0052,-0.0071,-0.0069,-0.0071,-0.0061,-0.0062,-0.0062,-0.0062,0,0.0167,0.0175,0.0211,0.024,0.027,0.0266,0.0287,0.0264,0.0269,0.0258,0.0231,0.0184,0.0157,0.0091,0.005,0.0033,0.0014,0.0004,-0.0001,-0.0004,0.0032,0.0018,0.0061,0,0,0,0,0,0.0154,0.0148,0.0169,0.0181,0.0218,0.0239,0.0245,0.0253,0.027,0.0241,0.025,0.0196,0.0152,0.009,0.0078,0.0035,-0.0007,0.0017,-0.0025,-0.005,-0.0052,-0.0018,0,0,0,0,0,0,0.0129,0.0145,0.0147,0.0137,0.0148,0.0167,0.0187,0.0199,0.0169,0.0197,0.0157,0.0194,0.0122,0.0169,0.0077,0.0067,0.0039,0.0002,0.0002,-0.0048,-0.0051,-0.0053,-0.0018,0,0,0,0,0]}]]